STARLINK-31771 (59620 NORAD) Tracking and Keplerian Element Data

This shows tracking and keplerian element data for the satellite.

Feedback or suggestion? Click here.




ElementValue
Catalog59620
NameSTARLINK-31771
Epoch Orbit745
Epoch Day160.16032285
Epoch Year2024
RAAN87.8248
Inclination43.0023
Eccentricity0.0001187
Argument of Perigee296.2794
Mean Anonmoly63.7941
Mean Motion15.40709061
Decay Rate5.401E-05
L11 59620U 24080V 24160.16032285 .00005401 00000+0 13642-3 0 9994
L22 59620 43.0023 87.8248 0001187 296.2794 63.7941 15.40709061 7458



Live tracking and technical data element details for STARLINK-31771 (NORAD 59620). STARLINK-31771 can be tracked NOW for your location showing map with azimuth and elevation plus other details from your city location.







IsCatalogInMostPopularTable: catalog: 59620, numindb: 16
Update: records affected: 1



GetName: 59620 STARLINK-31771

Hit Count: updated at: Fri, 14 Jun 2024 17:58:11 GMT